星链-30783 (STARLINK-30783 )

导读

STARLINK-30783是美国SpaceX公司于2023年10月22日发射的星链(Starlink)V2 Mini型卫星,重约800公斤,属于星链全球卫星互联网星座的组成部分。该卫星配备升级相控阵天线与E频段回传技术,大幅提升通信带宽,依托氩霍尔推进器增强轨道机动效率,运行于近地轨道,为全球偏远地区、海洋等网络覆盖盲区提供高速低延迟的互联网接入服务,助力星链星座组网推进。

基本信息
目录编号:
58130
目录名称:
STARLINK-30783
国际标识:
2023-162N
轨道中心:
EARTH
卫星名称:
星链-30783
卫星全名:
星链-30783 (STARLINK-30783 )
卫星状态:
在轨 (已飞行970 天)
发射日期:
2023-10-22 UTC
国别 :
美国 (US)
星等 :
--
轨道信息
数据来源 国际轨道数据 AOE轨道数据
星历时间 2026-06-17T09:32:36+0800
1天前
查看轨道信息
2026-06-16T08:00:00+0800
2天前
查看轨道信息
半长轴 6861.183km 6861.128km
偏心率 0.000121 0.0002352
轨道倾角 43.001° 43.006°
近地点辐角 267.950° 297.495°
升交点赤经 287.998° 294.023°
平近点角 92.121° 322.798°
近地点 482.215km 481.377km
远地点 483.877km 484.605km
周期 94.267分钟 94.266分钟
每日圈数 15.275811 15.275996
详细信息
固有亮度:
5
最大亮度:
0.3
卫星平台:
Starlink v2.0 mini
覆盖范围:
全球
运营商:
太空探索技术公司
运营商所在国:
美国
制造商(研发单位):
太空探索技术公司
制造商所在国:
美国
使用方式:
暂无
卫星简介
星链(Starlink)计划是由太空探索技术公司(SpaceX)提出的一个巨型低轨卫星互联网星座项目,计划在2019年至2024年间在太空搭建由约1.2万颗卫星组成的“星链”网络,其中1584颗将部署在地球上空550千米处的近地轨道,并从2020年开始工作。该卫星仍在工作。
2D轨道图
3D轨道图
轨道高度分析图
轨道倾角分析图
轨道综合分析图
查看轨道综合分析图